Date,TemperatureHighF,TemperatureAvgF,TemperatureLowF,DewpointHighF,DewpointAvgF,DewpointLowF,HumidityHigh,HumidityAvg,HumidityLow,PressureMaxIn,PressureMinIn,WindSpeedMaxMPH,WindSpeedAvgMPH,GustSpeedMaxMPH,PrecipitationSumIn
2013-1-5,45.3,43.9,43.2,45.3,43.9,43.2,100,100,100,29.91,29.88,10,6,15,3.44
2013-1-6,51.1,45.7,40.8,47.3,43.1,40.2,100,91,67,30.00,29.88,8,2,16,0.00
2013-1-7,59.3,47.6,39.2,49.4,41.7,38.1,100,83,49,30.06,29.94,4,1,6,0.00
2013-1-8,60.8,48.8,41.0,50.7,41.6,38.7,100,79,47,30.06,29.91,6,2,9,0.00
2013-1-9,53.3,46.5,41.9,49.3,39.9,29.6,100,79,53,29.94,29.80,9,3,16,0.00
2013-1-10,51.3,43.7,38.6,34.9,29.9,26.4,78,59,39,30.00,29.88,7,3,13,0.00
2013-1-11,53.2,43.8,37.9,39.8,31.0,25.8,88,62,41,30.06,29.91,7,2,11,0.00
2013-1-12,50.6,41.7,33.4,37.0,26.6,19.1,96,59,31,30.06,29.94,6,2,8,0.00
2013-1-13,50.3,40.1,31.1,31.0,20.3,14.4,68,45,30,30.09,29.97,8,2,13,0.00
2013-1-14,55.0,43.0,32.7,20.8,16.7,11.8,49,35,26,30.21,30.03,10,-7,16,0.00
2013-1-15,56.7,42.3,33.6,26.8,22.6,18.6,64,47,30,30.30,30.21,8,2,12,0.00
2013-1-16,58.6,44.5,34.3,35.4,27.4,21.6,84,53,31,30.24,30.06,8,2,12,0.00
2013-1-17,64.2,51.3,40.3,32.4,26.5,21.7,61,39,26,30.09,29.94,10,4,16,0.00
2013-1-18,65.9,52.4,42.6,33.5,27.6,19.1,61,40,25,30.03,29.94,9,4,17,0.00
2013-1-19,65.1,51.5,39.4,33.2,27.2,19.1,74,41,28,30.06,29.94,10,4,19,0.00
2013-1-20,67.0,52.5,41.0,29.0,24.1,17.9,52,34,24,30.06,29.94,8,-25,14,0.00
2013-1-21,66.6,51.2,38.7,35.0,29.7,20.2,62,45,28,30.00,29.88,8,4,14,0.00
2013-1-22,64.0,52.9,44.6,37.5,33.8,29.4,58,49,35,29.91,29.80,9,4,14,0.00
2013-1-23,55.4,51.2,48.2,49.9,43.2,36.5,100,76,55,29.88,29.77,9,-53,15,0.17
2013-1-24,60.2,53.2,48.7,52.0,49.7,47.5,100,89,69,30.00,29.85,8,-33,13,0.00
2013-1-25,64.7,55.4,49.6,58.9,50.5,47.5,100,85,60,30.00,29.83,5,1,8,0.00
2013-1-26,60.6,51.7,45.7,52.4,42.0,33.0,100,73,38,29.88,29.77,10,4,17,0.00
2013-1-27,55.5,47.3,40.2,36.8,33.2,28.2,83,60,36,29.97,29.85,6,2,9,0.00
2013-1-28,58.3,48.4,40.6,40.9,35.8,32.5,88,63,39,30.09,29.97,9,3,13,0.00
2013-1-29,59.5,49.9,41.8,39.7,36.6,32.7,81,62,38,30.15,30.03,5,2,9,0.00
2013-1-30,63.4,51.8,42.3,44.3,39.1,36.3,88,64,38,30.12,30.03,5,2,6,0.00
2013-1-31,66.7,52.4,41.4,50.8,39.6,37.3,98,66,36,30.09,29.97,6,2,10,0.00
2013-2-1,67.5,55.6,44.8,41.7,38.8,36.0,84,56,34,30.00,29.91,8,4,15,0.00
2013-2-2,58.3,49.4,45.0,50.3,44.0,37.9,100,83,52,30.09,30.00,5,1,8,0.00
2013-2-3,60.1,49.8,42.1,44.7,41.1,37.9,96,74,45,30.03,29.91,5,2,8,0.00
2013-2-4,54.7,47.9,42.4,49.9,46.2,40.8,100,94,79,29.97,29.85,4,1,6,0.00
2013-2-5,60.3,50.0,45.7,45.5,42.3,39.3,93,76,49,29.94,29.85,8,2,14,0.00
2013-2-6,61.9,48.5,39.2,46.2,37.8,34.1,99,69,38,30.00,29.88,7,2,10,0.00
2013-2-7,58.9,48.6,42.8,48.0,39.1,28.1,99,73,37,29.97,29.80,8,3,12,0.04
2013-2-8,57.5,46.6,39.7,41.3,37.0,31.0,99,72,40,29.83,29.74,7,2,11,0.00
2013-2-9,62.5,48.1,38.7,36.1,28.5,22.0,72,50,25,29.88,29.80,5,2,8,0.00
2013-2-10,62.2,47.3,36.0,37.2,32.2,25.5,84,58,34,29.94,29.80,4,2,7,0.00
2013-2-11,69.2,51.6,39.6,46.8,31.6,23.8,98,51,23,30.03,29.88,6,3,9,0.00
2013-2-12,66.3,51.0,40.1,49.6,38.0,29.8,100,67,31,30.15,30.03,5,2,10,0.00
2013-2-13,65.3,49.0,38.8,47.5,39.2,34.0,96,72,36,30.15,30.00,6,2,10,0.00
2013-2-14,72.8,54.0,42.1,48.5,39.3,36.2,98,62,31,30.06,29.94,6,2,12,0.00
2013-2-15,73.3,59.7,47.5,39.5,34.1,31.1,71,40,24,30.06,30.00,8,4,15,0.00
2013-2-16,71.0,56.4,46.4,45.6,39.6,32.6,84,56,33,30.03,29.83,6,2,10,0.00
2013-2-17,66.6,53.0,43.8,49.5,41.1,34.3,97,68,36,29.85,29.77,6,2,10,0.00
2013-2-18,56.0,48.9,44.6,45.1,37.6,31.2,93,67,45,29.83,29.77,9,4,17,0.00
2013-2-19,50.3,45.1,41.0,45.4,35.6,27.6,99,70,48,29.77,29.56,10,4,16,0.21
2013-2-20,60.9,47.1,36.1,35.9,32.2,28.8,81,58,35,29.85,29.65,8,3,11,0.00
2013-2-21,61.5,48.9,38.7,36.6,31.7,26.8,79,54,29,29.97,29.85,7,3,11,0.00
2013-2-22,65.4,50.5,39.4,41.8,36.5,32.2,90,61,31,30.06,29.97,7,3,11,0.00
2013-2-23,59.2,51.0,45.5,46.2,35.3,29.8,87,57,34,30.06,29.94,8,4,14,0.00
2013-2-24,68.3,52.3,43.2,40.5,28.2,19.2,76,42,17,30.06,29.94,9,3,13,0.00
2013-2-25,65.1,52.5,41.0,48.0,38.1,33.6,98,62,35,30.06,29.94,6,2,8,0.00
2013-2-26,69.6,52.2,38.3,39.5,31.5,22.9,84,50,20,30.03,29.91,6,2,8,0.00
2013-2-27,68.8,52.5,40.8,43.2,34.7,29.0,77,53,25,30.15,30.00,6,2,10,0.00
2013-2-28,69.3,59.9,48.7,49.5,44.2,41.2,84,57,42,30.24,30.15,6,3,8,0.00
2013-3-1,71.9,63.3,45.9,50.0,45.9,39.7,98,56,36,30.18,30.03,4,2,6,0.00
2013-3-2,72.5,58.7,49.6,53.9,46.6,42.5,99,67,39,30.03,29.85,5,2,11,0.00
2013-3-3,70.3,56.6,48.5,49.8,44.4,41.4,99,68,37,29.88,29.80,9,4,14,0.00
2013-3-4,59.3,50.6,43.5,45.9,43.1,38.0,93,77,49,29.94,29.85,7,3,12,0.00
2013-3-5,60.0,54.6,42.8,58.0,37.6,35.4,98,54,44,29.92,29.62,10,-24,22,0.13
2013-3-6,57.7,51.4,47.5,48.9,41.9,34.7,100,72,43,29.85,29.62,10,-44,17,0.08
2013-3-7,58.2,52.9,47.8,44.4,37.8,32.4,84,58,41,29.74,29.65,5,2,8,0.00
2013-3-8,63.5,50.7,44.2,43.4,37.9,33.3,84,63,36,29.83,29.65,10,3,18,0.00
2013-3-9,69.6,53.3,40.5,47.5,37.2,33.5,94,59,30,30.09,29.83,6,2,10,0.00
2013-3-10,71.3,55.3,42.8,44.3,36.7,30.9,77,52,29,30.15,30.03,6,2,12,0.00
2013-3-11,73.4,54.1,42.3,47.5,38.5,32.7,90,58,29,30.06,29.88,5,2,10,0.00
2013-3-12,71.8,56.3,45.1,53.4,46.4,42.1,98,73,39,29.97,29.85,4,2,8,0.00
2013-3-13,75.7,59.2,46.8,52.3,47.1,44.2,100,68,34,29.94,29.83,4,2,7,0.00
2013-3-14,71.3,58.1,49.2,53.7,46.0,39.4,93,67,39,29.94,29.85,7,2,10,0.00
2013-3-15,72.1,57.2,47.7,48.7,44.1,40.1,87,65,33,29.91,29.80,6,2,10,0.00
2013-3-16,71.2,58.1,47.3,55.8,44.3,34.4,100,66,33,29.88,29.80,8,3,15,0.00
2013-3-17,69.9,56.0,47.1,41.6,37.7,33.2,74,52,28,29.94,29.83,8,2,13,0.00
2013-3-18,67.4,54.8,45.5,46.0,41.3,36.1,89,63,36,29.91,29.80,6,3,14,0.00
2013-3-19,65.9,54.3,47.8,47.2,42.7,35.9,88,67,34,29.91,29.85,6,2,12,0.08
2013-3-20,61.9,53.9,48.0,56.9,50.4,42.7,100,89,56,29.91,29.85,8,3,13,0.04
2013-3-21,65.4,53.0,43.5,48.4,39.4,35.3,88,63,36,29.91,29.80,6,2,10,0.00
2013-3-22,67.2,54.6,45.2,39.2,34.0,29.0,74,49,24,29.91,29.83,6,3,10,0.00
2013-3-23,68.6,54.4,41.0,42.1,33.6,26.7,81,49,22,29.94,29.83,5,2,11,0.00
2013-3-24,71.4,55.0,43.7,46.9,40.8,36.4,86,62,33,29.88,29.77,8,-1,13,0.00
2013-3-25,62.1,51.9,46.0,45.2,41.9,37.3,92,71,45,29.83,29.74,8,4,13,0.00
2013-3-26,66.2,54.1,45.5,45.4,41.1,38.5,81,63,43,29.80,29.71,6,2,12,0.00
2013-3-27,64.6,55.5,49.3,53.2,48.1,41.7,98,78,54,29.80,29.74,6,4,12,0.00
2013-3-28,66.5,57.9,53.4,56.3,51.2,45.3,99,80,49,29.88,29.80,5,2,8,0.00
2013-3-29,78.4,60.5,48.2,54.9,47.5,43.0,100,67,32,29.88,29.80,8,2,17,0.00
2013-3-30,69.1,57.8,52.3,55.0,50.0,43.0,100,77,44,29.85,29.77,8,3,12,0.00
2013-3-31,65.8,57.5,52.6,58.9,53.0,45.6,100,86,50,29.85,29.77,6,2,11,0.08
2013-4-1,67.2,57.8,52.4,59.9,50.7,41.8,100,80,45,29.94,29.83,6,2,9,0.42
2013-4-2,68.5,56.1,47.7,54.3,49.1,46.4,100,80,48,29.97,29.85,6,2,10,0.00
2013-4-3,72.5,55.7,48.0,54.0,50.0,45.3,100,84,41,29.91,29.77,7,3,13,0.00
2013-4-4,63.4,55.7,50.7,60.3,54.5,49.5,100,96,75,29.91,29.77,10,4,16,0.33
2013-4-5,65.8,57.8,53.8,57.6,51.5,45.4,100,81,51,29.97,29.88,6,3,11,0.00
2013-4-6,66.1,57.8,53.2,56.1,52.3,49.1,100,83,60,29.97,29.91,8,3,13,0.00
2013-4-7,67.4,57.4,52.3,54.4,48.8,39.3,100,75,43,29.94,29.62,11,0,20,0.00
2013-4-8,68.3,55.5,47.7,45.7,35.6,27.8,76,49,22,29.83,29.59,17,6,29,0.00
2013-4-9,75.3,61.5,50.7,42.6,37.0,26.6,73,44,16,29.88,29.80,12,5,18,0.00
2013-4-10,83.4,66.3,55.4,47.9,42.7,38.3,59,44,27,29.97,29.80,6,2,12,0.00
2013-4-11,73.3,61.0,51.2,45.7,42.6,38.7,73,53,32,29.85,29.62,6,3,11,0.00
2013-4-12,73.3,58.6,49.5,50.6,44.8,39.9,93,63,34,29.74,29.62,7,4,12,0.00
2013-4-13,68.8,54.9,49.3,46.7,44.6,42.2,88,70,40,29.71,29.65,6,4,10,0.00
2013-4-14,70.8,59.9,50.9,47.1,37.9,31.1,84,47,30,29.74,29.65,12,5,19,0.00
2013-4-15,61.9,52.0,46.0,46.9,35.9,29.7,87,57,35,29.77,29.65,12,6,24,0.00
2013-4-16,68.2,55.4,45.7,38.9,31.2,28.8,56,41,24,29.94,29.77,8,4,14,0.00
2013-4-17,70.1,60.5,54.0,32.6,28.9,20.1,43,31,15,30.06,29.94,12,6,17,0.00
2013-4-18,76.7,61.4,48.7,39.9,34.4,31.6,58,38,21,30.06,29.97,7,2,10,0.00
2013-4-19,76.8,62.7,50.2,48.1,42.4,33.3,75,50,31,30.00,29.83,8,3,15,0.00
2013-4-20,79.9,64.7,56.2,43.7,40.1,36.6,58,42,23,29.91,29.77,5,3,9,0.00
2013-4-21,85.1,66.1,50.5,47.9,41.8,37.5,73,45,20,29.83,29.71,6,2,10,0.00
2013-4-22,88.2,69.3,55.9,49.8,40.7,36.2,60,38,16,29.77,29.62,6,2,11,0.00
2013-4-23,63.2,62.5,62.1,41.0,40.5,40.1,45,44,44,29.68,29.65,3,2,6,0.00
2013-4-29,87.1,76.3,62.3,47.2,43.2,41.6,48,32,22,29.62,29.53,6,-43,11,0.00
2013-4-30,81.1,67.7,55.9,46.6,41.6,29.9,71,42,23,29.65,29.56,6,-29,11,0.00
2013-5-1,86.4,72.7,63.5,38.3,28.1,16.7,33,20,8,29.85,29.65,9,4,13,0.00
2013-5-2,92.8,73.3,56.1,35.5,28.3,17.5,38,22,7,29.94,29.85,6,3,12,0.00
2013-5-3,89.5,71.2,58.1,44.9,34.7,25.2,49,27,18,29.85,29.59,6,2,11,0.00
2013-5-4,82.1,65.2,54.9,50.4,43.5,36.3,84,49,23,29.59,29.35,10,4,21,0.00
2013-5-5,66.4,59.7,54.1,49.4,45.7,42.9,78,60,45,29.59,29.41,6,2,10,0.00
2013-5-6,72.7,62.0,56.3,52.5,47.5,42.2,79,61,37,29.77,29.62,7,2,13,0.00
2013-5-7,74.3,62.8,54.7,52.9,49.1,42.4,93,63,34,29.83,29.74,7,3,12,0.00
2013-5-8,68.4,58.2,53.6,53.2,49.4,45.5,97,74,46,29.91,29.83,6,4,12,0.00
2013-5-9,70.9,59.5,52.3,50.1,47.4,44.8,84,66,42,29.94,29.85,7,3,13,0.00
2013-5-10,68.5,58.4,52.2,53.3,50.1,46.8,97,76,48,29.97,29.85,9,5,15,0.00
2013-5-11,80.2,61.8,51.6,56.4,51.0,44.9,100,73,34,29.91,29.80,7,4,12,0.00
2013-5-12,79.9,64.6,54.0,57.0,51.5,43.3,99,67,37,29.91,29.80,7,4,13,0.00
2013-5-13,75.9,62.2,52.0,54.1,50.5,46.4,98,69,42,29.85,29.71,8,5,14,0.00
2013-5-14,70.0,60.4,53.8,52.3,49.5,45.3,90,70,42,29.74,29.71,9,6,17,0.00
2013-5-15,72.8,63.1,56.5,47.1,42.8,40.5,72,49,33,29.80,29.77,6,4,12,0.00
2013-5-16,73.5,61.5,55.4,54.4,48.4,41.9,91,65,35,29.80,29.74,9,4,14,0.00
2013-5-17,72.9,60.4,51.8,47.3,41.9,34.1,78,53,32,29.85,29.77,9,4,15,0.00
2013-5-18,77.5,62.6,50.9,49.6,45.0,40.6,87,56,31,29.91,29.83,7,3,10,0.00
2013-5-19,84.1,68.2,55.0,46.1,41.9,37.9,68,41,21,29.91,29.74,6,2,13,0.00
2013-5-20,89.0,69.0,54.5,47.5,41.5,36.9,78,41,18,29.80,29.68,9,4,17,0.00
2013-5-21,74.2,61.2,53.2,48.3,42.2,33.7,83,53,32,29.77,29.68,11,5,19,0.00
2013-5-22,69.1,57.3,48.6,36.0,31.8,27.0,54,39,24,29.83,29.68,11,5,15,0.00
2013-5-23,53.4,50.2,48.4,39.0,37.3,35.6,67,61,51,29.77,29.71,6,3,8,0.00